User: anonymous   Login
Location: Unspecified
(0.0000°N, 0.0000°E)
Time: 10:39:46
(UTC+02:00)
Language:

NATO 3D Rocket - Orbit

View from above orbital plane
View from above orbital plane
View from above satellite
View from above satellite

Ground track
Ground track

The orbit data is extracted from the following two-line orbital elements,

1 15392U 84115B   17113.70012934 +.00000244 +00000-0 +76971-4 0  9992
2 15392 021.4970 200.1203 1034546 299.5388 050.5786 12.45547289459422
Epoch (UTC): 23 April 2017 16:48:11
Eccentricity: 0.1034546
inclination: 21.4970°
perigee height: 670 km
apogee height: 2296 km
right ascension of ascending node: 200.1203°
argument of perigee: 299.5388°
revolutions per day: 12.45547289
mean anomaly at epoch: 50.5786°
orbit number at epoch: 45942

The dashed part of the orbit path shows where the satellite is in the earth's shadow,  

DLR